Lapse_Rate
7.2 6.6 5.7 5.7 5.8 5.9 6.1 6.2 6.5 6.3 6.4 5.8 5.3 5.5 5.5 5.8 5.7 5.8 5.7 5.6 5.6 5.8 5.9 5.7 5.5 5.4 5.3 5.2 5.0 5.2 5.2 5.4 5.7 5.8 5.9 5.9 5.9 5.8 5.9 5.9 5.9 5.7 5.7
7.6 7.2 6.9 6.7 6.0 6.7 6.7 6.6 6.8 6.5 6.4 6.2 5.8 5.7 5.8 6.0 6.0 5.9 5.6 5.6 5.7 5.8 5.7 5.7 5.6 5.4 5.3 5.1 5.2 5.2 5.4 5.7 5.6 5.7 5.7 5.7 5.8 5.9 5.8 5.8 5.8 5.9 6.0
7.6 7.6 7.8 7.8 7.2 7.2 7.2 7.1 6.8 6.6 6.8 6.8 6.4 6.2 6.0 5.9 5.9 5.8 5.8 5.9 5.8 5.7 5.7 5.7 5.6 5.4 5.2 5.4 5.5 5.7 5.6 5.6 5.6 5.5 5.7 5.8 5.7 5.7 5.7 5.7 5.6 5.7 5.7
7.9 7.7 7.7 7.6 7.2 6.8 7.0 7.3 6.8 6.6 7.2 6.9 6.3 6.0 5.8 5.8 5.7 5.6 5.7 5.6 5.5 5.5 5.6 5.5 5.5 5.4 5.4 5.5 5.5 5.7 5.8 5.7 5.9 5.9 5.8 5.7 5.7 5.7 5.7 5.6 5.1 4.8 4.8
8.0 8.0 7.9 7.5 7.2 7.1 7.3 7.3 7.2 7.2 7.1 6.5 6.0 5.9 5.8 5.7 5.6 5.6 5.5 5.5 5.5 5.5 5.5 5.5 5.5 5.7 5.8 5.7 5.8 6.0 6.1 6.0 5.9 5.7 5.1 5.2 5.2 5.0 5.0 4.8 5.4 5.0 5.1
8.0 8.0 7.8 7.5 7.2 7.1 7.1 7.3 7.1 7.0 6.6 6.3 6.0 5.8 5.6 5.7 5.6 5.6 5.6 5.7 5.8 6.0 6.1 6.2 6.2 6.1 6.0 5.8 5.8 5.9 5.9 5.9 5.9 5.9 5.0 4.9 5.8 6.0 5.5 5.8 5.6 5.5 5.4
7.7 7.7 7.6 7.7 7.5 7.2 7.3 7.1 6.8 6.6 6.3 6.1 5.9 5.8 5.7 5.7 5.8 5.9 5.9 6.1 6.2 6.4 6.4 6.3 6.3 6.2 6.2 6.2 6.2 6.1 6.1 6.0 5.9 5.7 5.6 5.6 5.7 5.6 5.7 5.8 5.9 5.9 5.9
7.2 7.0 7.7 7.5 7.1 7.2 7.1 7.0 6.4 6.1 5.9 5.8 5.7 5.7 5.5 5.6 5.9 6.1 6.2 6.3 6.3 6.3 6.4 6.5 6.4 6.3 6.3 6.3 6.4 6.3 6.1 6.0 5.9 5.8 5.8 5.7 5.8 5.6 5.7 5.8 5.8 5.8 5.9
6.6 7.0 7.6 7.3 6.8 6.8 6.5 6.5 6.1 5.9 5.7 5.5 5.5 5.6 5.7 6.0 6.2 6.3 6.4 6.5 6.6 6.5 6.4 6.4 6.4 6.4 6.5 6.5 6.5 6.4 6.2 6.0 6.0 6.0 6.1 5.9 5.7 5.7 5.7 5.8 5.7 5.6 5.9
6.6 6.9 7.2 7.0 6.8 6.7 6.4 6.2 5.9 5.7 5.6 5.5 5.7 5.9 6.1 6.3 6.5 6.7 6.5 6.4 6.3 6.3 6.3 6.2 6.0 6.0 6.2 6.1 6.1 6.2 6.1 6.0 6.0 5.8 5.9 5.7 5.6 5.6 5.5 5.5 5.3 5.3 5.2
7.0 7.0 6.9 6.7 6.6 6.6 6.3 6.2 6.1 5.7 5.7 5.8 6.1 6.2 6.3 6.4 6.5 6.5 6.3 6.2 6.1 5.9 5.8 5.0 5.5 6.0 6.2 6.4 6.4 6.2 6.0 5.9 5.9 5.8 5.7 5.8 5.7 5.4 5.0 5.2 5.5 5.3 4.9
6.8 6.7 6.6 6.6 6.5 6.2 6.1 6.0 5.8 5.7 5.7 5.9 6.1 6.2 6.3 6.4 6.5 6.4 6.2 6.1 6.0 5.9 5.9 5.4 5.6 6.4 6.2 6.2 6.2 6.0 5.9 5.9 5.8 5.7 5.6 5.6 5.6 5.5 5.3 5.1 5.0 5.2 5.2
6.6 6.5 6.5 6.4 6.3 6.3 6.1 5.8 5.8 6.0 6.1 6.1 6.0 6.2 6.2 6.3 6.3 6.3 6.2 6.1 6.0 6.1 6.3 6.4 6.3 6.2 6.1 6.0 6.0 5.9 5.8 5.6 5.4 5.4 5.5 5.5 5.4 5.3 5.3 5.2 5.3 5.3 5.3
6.5 6.3 6.2 6.2 6.1 6.0 6.0 6.1 6.2 6.2 6.1 5.9 4.8 4.5 4.7 4.7 5.0 5.9 6.2 6.3 6.3 6.3 6.3 6.2 6.1 6.0 5.9 5.9 5.8 5.7 5.6 5.4 5.4 5.5 5.3 5.4 5.4 5.3 5.3 5.3 5.4 5.4 5.2
6.4 6.2 6.1 5.9 5.8 5.9 6.0 6.0 6.1 6.2 6.0 4.9 4.6 4.6 4.8 4.9 5.0 5.7 5.7 5.9 6.2 6.3 6.3 6.1 6.0 5.9 6.0 5.9 5.8 5.7 5.6 5.6 5.7 5.6 5.7 5.6 5.6 5.5 5.7 5.5 5.4 5.4 5.3
6.1 6.1 5.8 5.4 5.3 5.8 5.9 6.1 6.2 6.2 6.3 6.2 6.1 6.1 6.0 6.2 6.1 6.3 6.4 6.3 6.2 6.3 6.3 6.1 6.1 6.0 5.9 5.8 5.8 5.8 5.7 5.4 5.9 5.8 5.8 5.8 5.7 5.7 5.8 5.7 5.6 5.3 5.4
5.7 5.7 5.5 5.6 4.8 4.8 5.3 5.2 4.9 5.5 6.2 6.3 6.3 6.3 6.4 6.4 6.2 6.1 6.2 6.2 6.0 6.0 6.1 5.9 6.0 6.0 5.9 5.9 5.9 5.8 5.9 5.9 6.0 5.9 5.9 5.9 5.8 5.8 5.9 5.9 5.7 5.6 5.4
5.6 5.5 5.4 5.2 5.5 5.2 5.2 5.5 5.1 5.1 5.2 5.8 6.3 6.4 6.4 6.2 6.1 6.0 6.1 6.0 6.1 6.0 5.9 6.1 6.1 6.1 6.1 6.1 6.0 6.0 5.9 5.9 5.8 5.8 5.9 5.8 5.8 5.8 5.9 5.7 5.6 5.2 4.7
5.7 5.6 5.6 5.6 5.4 5.6 5.5 5.5 5.3 5.3 5.3 5.3 5.4 5.6 5.9 6.1 6.1 6.1 6.1 6.1 6.2 6.2 6.1 6.1 6.1 6.1 6.1 6.0 5.9 6.0 6.0 5.7 5.6 5.8 5.8 5.8 5.8 5.7 5.5 5.5 5.3 4.8 4.7
6.0 5.8 5.6 5.4 5.6 5.3 5.4 5.4 5.6 5.7 5.8 5.4 5.7 5.8 6.0 6.0 6.3 6.4 6.4 6.4 6.3 6.2 6.2 6.1 6.1 6.1 6.0 6.0 6.0 6.0 5.9 5.6 5.7 5.7 5.7 5.7 5.7 5.7 5.7 5.4 5.1 4.9 4.7
6.0 5.5 5.6 5.2 5.3 5.5 5.3 5.6 5.6 5.9 6.3 6.2 6.1 5.9 5.8 6.1 6.3 6.3 6.3 6.5 6.5 6.4 6.3 6.1 6.2 6.0 5.9 6.0 6.0 6.0 5.9 5.9 5.7 5.6 5.6 5.5 5.4 5.6 5.6 5.6 5.5 5.2 4.9
5.6 5.3 5.5 5.2 5.5 5.6 5.5 5.7 5.8 6.1 6.2 6.4 6.3 6.1 6.0 6.4 6.5 6.6 6.6 6.5 6.4 6.2 6.3 6.1 6.3 6.4 6.1 6.0 6.0 6.0 5.8 5.9 5.8 5.6 5.4 5.2 5.1 5.0 4.9 5.0 5.0 5.1 4.9
5.3 5.2 5.3 5.4 5.6 6.2 5.5 5.6 5.9 6.1 6.2 6.3 6.3 6.2 6.2 6.5 6.7 6.6 6.6 6.6 6.5 6.4 6.4 6.3 6.4 6.3 6.2 6.2 6.1 6.1 6.0 5.7 5.7 5.6 5.4 5.1 5.0 4.7 4.7 4.6 4.6 4.5 4.5
5.5 5.6 5.6 5.7 5.8 6.0 5.9 5.9 6.0 6.0 6.2 6.2 6.4 6.5 6.5 6.5 6.6 6.5 6.6 6.4 6.1 5.9 6.2 6.3 6.4 6.4 6.4 6.2 6.1 6.0 5.8 6.0 6.0 5.6 5.5 5.5 5.1 4.9 4.8 4.6 4.5 4.5 4.2
6.2 5.8 5.8 5.8 5.8 5.9 5.9 6.0 6.0 5.9 6.3 6.5 6.6 6.6 6.5 6.6 6.5 6.4 6.3 6.2 6.0 5.8 6.2 6.3 6.4 6.4 6.2 6.0 5.9 5.7 5.4 5.9 5.7 5.8 5.8 5.4 4.9 4.7 4.2 3.9 4.1 4.4 3.8
6.3 6.3 6.1 5.8 5.9 5.9 5.9 6.1 6.0 6.1 6.4 6.7 6.7 6.5 6.4 6.5 6.5 6.4 6.5 6.3 6.2 6.5 6.5 6.4 6.5 6.4 6.2 6.0 5.8 5.8 5.6 5.5 5.3 5.5 5.4 5.1 4.7 4.7 4.3 4.2 4.3 4.8 4.9
Wind_Speed
16 15 19 20 19 12 9 9 9 8 8 8 8 9 7 6 5 5 4 5 4 3 2 4 3 3 2 2 1 1 1 1 3 3 1 4 2 3 4 4 6 7 4
16 14 12 13 9 13 10 11 13 11 9 9 8 7 7 7 6 6 5 5 4 4 4 4 4 3 2 2 3 1 3 1 4 3 4 3 3 1 3 3 6 7 5
10 10 9 12 8 9 10 11 10 8 8 8 8 8 7 6 6 5 4 5 5 5 6 6 5 5 2 1 4 2 3 3 3 4 2 2 2 3 3 6 5 6 11
9 8 7 7 9 8 10 11 11 10 8 10 9 9 8 7 7 7 7 6 5 5 5 4 4 4 4 4 5 3 4 5 3 6 5 4 4 2 4 6 6 5 5
8 9 8 8 7 6 7 10 11 11 11 10 9 7 7 7 7 8 7 7 6 5 5 5 7 1 6 4 5 3 3 6 6 5 5 5 6 5 5 6 7 8 7
8 8 10 11 11 10 11 11 10 10 9 8 7 7 8 7 12 2 4 7 7 7 8 8 6 8 9 9 7 7 8 7 7 8 7 5 5 7 6 7 8 8 9
10 10 8 7 10 10 10 9 9 9 9 9 9 9 9 6 11 9 8 7 8 7 6 6 6 5 5 7 12 10 10 10 11 9 10 9 9 8 6 8 9 9 10
8 10 10 10 10 10 8 9 9 9 10 9 9 9 9 7 12 11 10 9 6 6 7 7 8 9 8 8 9 10 11 11 13 11 12 13 12 10 8 9 10 10 11
10 9 9 10 9 9 10 9 9 8 8 8 8 8 8 7 11 9 7 6 8 10 10 10 9 10 8 8 11 12 11 11 13 20 21 22 21 21 14 9 11 11 10
11 10 9 9 9 9 9 9 8 7 6 6 6 7 6 7 11 9 9 9 10 8 9 10 12 13 5 12 12 11 11 10 9 9 11 14 20 18 20 13 10 11 11
10 10 9 9 9 9 8 8 8 7 6 7 7 8 9 9 9 12 12 10 9 8 9 8 9 18 14 11 13 12 12 8 8 9 10 10 11 11 9 15 13 8 11
10 10 10 10 8 8 9 8 8 9 9 9 9 8 9 10 11 11 14 16 11 10 10 7 5 12 11 11 10 14 14 9 10 10 10 10 7 8 11 8 13 13 14
11 11 11 11 10 10 10 10 9 10 9 9 9 9 9 9 10 16 13 16 16 11 10 6 5 4 7 9 15 14 7 9 10 11 11 9 9 12 9 9 13 14 15
12 12 11 11 11 10 10 10 9 9 9 10 9 8 8 8 9 9 11 11 15 10 12 11 11 10 8 10 5 8 9 8 8 10 10 10 9 9 9 8 7 8 9
12 12 12 11 12 10 10 9 9 9 9 8 9 8 7 7 6 2 3 7 7 4 5 8 8 10 10 9 9 8 7 8 9 9 10 8 7 7 7 7 6 8 9
13 11 10 9 9 9 9 9 9 10 4 9 11 7 8 8 4 3 2 5 8 5 6 9 10 10 10 8 8 7 8 7 7 7 6 6 6 8 7 8 8 10 9
13 11 9 9 9 9 8 8 8 13 13 14 14 14 13 17 9 4 5 7 8 6 9 10 11 9 8 7 8 8 7 7 2 6 7 7 8 9 8 9 9 9 8
15 11 10 9 10 8 8 8 7 7 8 10 16 15 17 17 15 9 9 7 6 8 10 12 11 9 8 8 7 7 7 6 7 7 7 7 7 8 7 9 9 8 8
14 12 12 11 8 9 6 10 8 9 9 8 8 7 15 9 8 7 10 10 10 10 12 10 10 9 8 8 7 7 6 7 6 6 7 7 7 8 7 8 8 6 5
14 14 11 8 10 10 10 10 9 9 10 10 9 10 6 8 7 9 9 10 10 11 11 11 10 9 9 8 8 7 8 8 8 8 8 8 7 8 8 9 7 7 7
11 13 15 13 11 11 11 11 12 11 10 11 11 11 4 7 9 10 9 10 11 11 11 11 11 11 9 9 9 9 9 9 9 8 8 8 8 8 7 8 9 9 9
11 12 11 12 12 10 13 11 10 11 14 11 11 12 14 10 11 12 12 12 12 12 11 11 10 11 11 10 10 10 10 10 9 8 8 8 9 9 8 9 9 10 10
10 11 11 10 7 15 14 10 12 11 12 11 11 11 10 11 12 12 12 12 12 11 11 11 12 12 12 11 11 11 11 10 9 8 8 8 8 9 10 8 10 9 9
11 11 12 12 13 13 8 12 13 11 12 12 11 11 11 12 13 13 12 12 12 12 11 12 12 17 14 13 10 15 13 13 11 8 8 8 9 9 10 10 7 8 8
12 12 12 12 10 10 9 10 11 12 13 12 12 12 10 10 11 12 13 13 11 12 13 13 13 17 20 22 19 18 12 17 14 5 7 8 9 10 10 8 9 9 8
10 10 11 11 10 11 13 14 11 13 13 13 11 10 12 11 13 13 13 13 13 13 14 12 15 21 23 18 21 20 23 20 13 12 7 5 7 7 8 10 10 8 11
Wind_Direction
158 156 158 167 172 183 183 185 188 182 176 166 175 146 149 159 172 178 170 161 166 180 162 183 160 169 139 105 90 99 121 220 258 105 225 127 264 310 346 300 275 294 258
178 171 167 167 180 171 191 167 183 180 167 154 159 149 166 176 177 190 195 174 183 175 181 169 165 147 156 96 206 311 34 357 335 245 63 185 244 2 295 284 290 315 306
181 165 143 152 165 173 163 180 162 151 158 157 164 175 180 178 185 192 196 184 180 178 177 175 159 161 184 182 290 208 173 235 223 290 291 198 291 256 250 235 248 263 267
143 156 129 132 143 151 160 160 153 154 158 169 172 172 175 177 182 180 179 179 181 183 191 192 183 195 198 207 232 220 231 281 221 267 276 273 240 159 269 279 266 249 294
116 120 124 127 142 156 159 153 154 164 165 170 169 169 176 185 184 175 180 183 187 196 204 209 209 206 41 328 283 216 317 244 263 263 269 260 256 281 312 318 304 288 298
129 141 145 150 158 161 155 158 154 158 160 158 163 171 173 190 107 99 242 188 196 207 211 214 230 179 213 221 251 280 308 265 270 294 285 277 297 276 290 301 315 309 311
153 150 147 145 156 158 158 147 161 156 155 162 167 172 179 177 150 184 224 229 210 215 224 234 240 241 192 245 209 220 238 243 251 274 276 280 299 282 298 294 293 303 292
156 158 160 154 162 164 157 169 161 160 167 170 170 179 189 184 168 190 207 237 227 237 253 251 251 262 244 240 250 246 242 235 219 225 237 257 261 262 269 275 285 285 276
159 167 150 159 163 169 183 162 165 165 171 175 176 184 197 189 173 185 211 248 239 241 239 241 248 247 243 185 244 253 257 260 251 224 243 260 270 276 275 288 277 282 279
150 168 164 177 175 173 168 165 166 178 174 185 191 205 213 231 167 183 202 243 235 239 231 232 208 244 254 185 228 241 249 255 259 280 220 240 248 254 249 233 263 270 278
152 158 160 169 174 173 170 173 178 189 183 212 210 220 230 222 227 185 202 241 255 223 237 227 228 195 217 204 222 248 249 272 266 256 255 254 255 254 244 207 225 238 274
161 167 173 176 187 171 180 184 196 207 214 221 225 232 218 227 217 202 198 222 250 257 258 258 263 165 194 199 205 233 248 267 260 263 264 270 278 287 283 271 254 255 263
171 176 180 184 194 181 196 203 208 211 241 216 222 223 232 210 216 210 208 216 232 238 256 279 350 201 203 231 231 242 222 238 248 257 262 261 257 274 296 270 252 251 254
180 182 184 190 196 202 203 208 224 218 212 231 225 230 236 226 219 219 205 217 229 228 247 255 250 252 286 283 275 208 229 248 253 260 263 265 276 279 275 268 271 267 259
188 191 195 201 197 202 224 224 218 227 227 225 225 236 244 233 228 173 279 227 227 171 273 246 252 251 257 257 253 258 252 243 234 240 249 263 280 282 270 272 280 275 281
196 202 200 206 195 213 199 216 229 264 261 263 274 271 275 261 273 192 225 301 315 329 245 250 258 261 264 267 261 251 247 234 251 272 268 253 253 263 274 264 267 278 275
215 209 207 221 210 206 212 227 243 209 223 219 230 236 228 256 271 125 187 202 197 176 238 254 257 256 252 253 248 255 268 267 267 258 260 267 274 279 285 275 272 271 269
214 233 225 215 229 229 228 233 242 250 245 226 224 227 226 233 246 249 183 190 218 217 253 258 254 240 241 241 246 255 253 247 237 250 265 276 276 272 259 262 255 272 257
214 224 214 235 231 229 250 251 241 247 247 251 249 191 216 211 219 219 186 235 247 250 245 231 238 240 233 231 236 240 246 255 264 271 258 260 268 265 275 277 275 258 249
218 231 237 206 235 219 228 243 249 246 242 240 245 249 181 163 221 216 211 228 235 243 251 243 237 228 229 221 223 224 230 225 227 227 234 246 260 270 274 276 269 267 237
219 223 208 229 243 226 226 228 230 234 242 242 238 237 263 270 269 272 263 233 234 248 246 242 237 223 225 218 218 217 230 237 236 240 246 252 256 258 256 252 247 253 266
232 239 232 228 226 239 240 232 232 217 240 248 244 241 178 234 252 258 258 257 252 243 248 244 237 236 217 218 214 225 231 235 236 236 243 250 253 258 225 246 252 249 250
245 240 240 244 232 232 230 233 245 250 252 250 253 253 240 228 243 247 253 257 256 249 244 237 238 231 219 219 216 213 228 228 229 227 239 248 255 258 260 238 239 247 246
242 238 242 245 245 240 213 239 242 236 260 258 253 250 250 252 257 263 261 258 254 250 244 244 234 228 224 220 210 225 220 226 219 217 221 247 257 256 248 266 266 256 250
248 253 255 254 257 258 246 274 259 252 248 241 243 247 267 269 263 262 272 272 262 257 253 244 236 226 226 223 226 220 207 151 192 181 231 232 252 265 264 239 229 234 242
251 252 256 253 250 230 224 234 244 245 247 251 259 262 262 284 283 276 276 274 262 256 256 245 235 228 237 233 227 223 155 153 162 191 238 240 257 252 253 256 263 269 265